Year,Month,Day,Hour,Minute,Value (Times are PST for temperature in C)
2019,10,27,00,00,6.20
2019,10,27,00,01,6.20
2019,10,27,00,02,6.10
2019,10,27,00,03,6.10
2019,10,27,00,04,6.10
2019,10,27,00,05,6.10
2019,10,27,00,06,6.00
2019,10,27,00,07,6.00
2019,10,27,00,08,6.00
2019,10,27,00,09,6.00
2019,10,27,00,10,6.00
2019,10,27,00,11,6.00
2019,10,27,00,12,6.00
2019,10,27,00,13,6.00
2019,10,27,00,14,6.10
2019,10,27,00,15,6.00
2019,10,27,00,16,6.00
2019,10,27,00,17,6.00
2019,10,27,00,18,6.00
2019,10,27,00,19,6.00
2019,10,27,00,20,5.90
2019,10,27,00,21,5.90
2019,10,27,00,22,5.90
2019,10,27,00,23,5.90
2019,10,27,00,24,5.90
2019,10,27,00,25,5.80
2019,10,27,00,26,5.80
2019,10,27,00,27,5.80
2019,10,27,00,28,5.80
2019,10,27,00,29,5.80
2019,10,27,00,30,5.80
2019,10,27,00,31,5.80
2019,10,27,00,32,5.80
2019,10,27,00,33,5.80
2019,10,27,00,34,5.80
2019,10,27,00,35,5.80
2019,10,27,00,36,5.80
2019,10,27,00,37,5.80
2019,10,27,00,38,5.80
2019,10,27,00,39,5.80
2019,10,27,00,40,5.80
2019,10,27,00,41,5.80
2019,10,27,00,42,5.80
2019,10,27,00,43,5.80
2019,10,27,00,44,5.80
2019,10,27,00,45,5.80
2019,10,27,00,46,5.80
2019,10,27,00,47,5.80
2019,10,27,00,48,5.80
2019,10,27,00,49,5.80
2019,10,27,00,50,5.80
2019,10,27,00,51,5.80
2019,10,27,00,52,5.80
2019,10,27,00,53,5.80
2019,10,27,00,54,5.80
2019,10,27,00,55,5.80
2019,10,27,00,56,5.80
2019,10,27,00,57,5.80
2019,10,27,00,58,5.80
2019,10,27,00,59,5.80
2019,10,27,01,00,5.70
2019,10,27,01,01,5.70
2019,10,27,01,02,5.70
2019,10,27,01,03,5.70
2019,10,27,01,04,5.70
2019,10,27,01,05,5.70
2019,10,27,01,06,5.70
2019,10,27,01,07,5.70
2019,10,27,01,08,5.70
2019,10,27,01,09,5.70
2019,10,27,01,10,5.70
2019,10,27,01,11,5.70
2019,10,27,01,12,5.70
2019,10,27,01,13,5.70
2019,10,27,01,14,5.70
2019,10,27,01,15,5.70
2019,10,27,01,16,5.70
2019,10,27,01,17,5.70
2019,10,27,01,18,5.70
2019,10,27,01,19,5.60
2019,10,27,01,20,5.60
2019,10,27,01,21,5.60
2019,10,27,01,22,5.60
2019,10,27,01,23,5.60
2019,10,27,01,24,5.60
2019,10,27,01,25,5.60
2019,10,27,01,26,5.60
2019,10,27,01,27,5.70
2019,10,27,01,28,5.70
2019,10,27,01,29,5.70
2019,10,27,01,30,5.60
2019,10,27,01,31,5.60
2019,10,27,01,32,5.60
2019,10,27,01,33,5.60
2019,10,27,01,34,5.60
2019,10,27,01,35,5.60
2019,10,27,01,36,5.60
2019,10,27,01,37,5.60
2019,10,27,01,38,5.60
2019,10,27,01,39,5.60
2019,10,27,01,40,5.60
2019,10,27,01,41,5.60
2019,10,27,01,42,5.60
2019,10,27,01,43,5.70
2019,10,27,01,44,5.70
2019,10,27,01,45,5.70
2019,10,27,01,46,5.70
2019,10,27,01,47,5.70
2019,10,27,01,48,5.70
2019,10,27,01,49,5.70
2019,10,27,01,50,5.70
2019,10,27,01,51,5.60
2019,10,27,01,52,5.60
2019,10,27,01,53,5.60
2019,10,27,01,54,5.60
2019,10,27,01,55,5.60
2019,10,27,01,56,5.60
2019,10,27,01,57,5.60
2019,10,27,01,58,5.60
2019,10,27,01,59,5.60
2019,10,27,02,00,5.60
2019,10,27,02,01,5.60
2019,10,27,02,02,5.60
2019,10,27,02,03,5.60
2019,10,27,02,04,5.60
2019,10,27,02,05,5.60
2019,10,27,02,06,5.60
2019,10,27,02,07,5.60
2019,10,27,02,08,5.60
2019,10,27,02,09,5.60
2019,10,27,02,10,5.60
2019,10,27,02,11,5.50
2019,10,27,02,12,5.50
2019,10,27,02,13,5.50
2019,10,27,02,14,5.40
2019,10,27,02,15,5.40
2019,10,27,02,16,5.40
2019,10,27,02,17,5.30
2019,10,27,02,18,5.30
2019,10,27,02,19,5.30
2019,10,27,02,20,5.30
2019,10,27,02,21,5.20
2019,10,27,02,22,5.20
2019,10,27,02,23,5.20
2019,10,27,02,24,5.10
2019,10,27,02,25,5.10
2019,10,27,02,26,5.10
2019,10,27,02,27,5.10
2019,10,27,02,28,5.10
2019,10,27,02,29,5.10
2019,10,27,02,30,5.10
2019,10,27,02,31,5.10
2019,10,27,02,32,5.10
2019,10,27,02,33,5.10
2019,10,27,02,34,5.10
2019,10,27,02,35,5.10
2019,10,27,02,36,5.10
2019,10,27,02,37,5.10
2019,10,27,02,38,5.10
2019,10,27,02,39,5.00
2019,10,27,02,40,5.00
2019,10,27,02,41,5.00
2019,10,27,02,42,5.00
2019,10,27,02,43,5.00
2019,10,27,02,44,5.00
2019,10,27,02,45,5.00
2019,10,27,02,46,5.00
2019,10,27,02,47,5.00
2019,10,27,02,48,5.00
2019,10,27,02,49,5.00
2019,10,27,02,50,5.00
2019,10,27,02,51,5.00
2019,10,27,02,52,4.90
2019,10,27,02,53,4.90
2019,10,27,02,54,4.90
2019,10,27,02,55,4.90
2019,10,27,02,56,4.90
2019,10,27,02,57,4.90
2019,10,27,02,58,4.90
2019,10,27,02,59,4.90
2019,10,27,03,00,4.90
2019,10,27,03,01,4.90
2019,10,27,03,02,4.90
2019,10,27,03,03,4.90
2019,10,27,03,04,4.90
2019,10,27,03,05,4.90
2019,10,27,03,06,4.90
2019,10,27,03,07,4.90
2019,10,27,03,08,4.80
2019,10,27,03,09,4.80
2019,10,27,03,10,4.80
2019,10,27,03,11,4.80
2019,10,27,03,12,4.80
2019,10,27,03,13,4.80
2019,10,27,03,14,4.80
2019,10,27,03,15,4.80
2019,10,27,03,16,4.80
2019,10,27,03,17,4.80
2019,10,27,03,18,4.80
2019,10,27,03,19,4.80
2019,10,27,03,20,4.80
2019,10,27,03,21,4.80
2019,10,27,03,22,4.80
2019,10,27,03,23,4.80
2019,10,27,03,24,4.80
2019,10,27,03,25,4.80
2019,10,27,03,26,4.80
2019,10,27,03,27,4.80
2019,10,27,03,28,4.80
2019,10,27,03,29,4.90
2019,10,27,03,30,4.90
2019,10,27,03,31,4.90
2019,10,27,03,32,4.90
2019,10,27,03,33,4.90
2019,10,27,03,34,4.90
2019,10,27,03,35,4.90
2019,10,27,03,36,4.90
2019,10,27,03,37,4.90
2019,10,27,03,38,4.90
2019,10,27,03,39,4.90
2019,10,27,03,40,4.90
2019,10,27,03,41,4.90
2019,10,27,03,42,4.90
2019,10,27,03,43,4.90
2019,10,27,03,44,4.90
2019,10,27,03,45,4.90
2019,10,27,03,46,4.90
2019,10,27,03,47,5.00
2019,10,27,03,48,5.00
2019,10,27,03,49,5.00
2019,10,27,03,50,5.00
2019,10,27,03,51,5.00
2019,10,27,03,52,5.00
2019,10,27,03,53,5.00
2019,10,27,03,54,4.90
2019,10,27,03,55,4.90
2019,10,27,03,56,4.90
2019,10,27,03,57,4.90
2019,10,27,03,58,4.90
2019,10,27,03,59,4.90
2019,10,27,04,00,4.90
2019,10,27,04,01,4.90
2019,10,27,04,02,4.90
2019,10,27,04,03,4.90
2019,10,27,04,04,4.90
2019,10,27,04,05,4.90
2019,10,27,04,06,4.90
2019,10,27,04,07,4.90
2019,10,27,04,08,4.90
2019,10,27,04,09,4.90
2019,10,27,04,10,4.90
2019,10,27,04,11,4.90
2019,10,27,04,12,4.90
2019,10,27,04,13,4.90
2019,10,27,04,14,4.90
2019,10,27,04,15,4.90
2019,10,27,04,16,4.90
2019,10,27,04,17,4.90
2019,10,27,04,18,4.90
2019,10,27,04,19,4.90
2019,10,27,04,20,4.90
2019,10,27,04,21,4.90
2019,10,27,04,22,4.90
2019,10,27,04,23,4.90
2019,10,27,04,24,4.90
2019,10,27,04,25,4.80
2019,10,27,04,26,4.80
2019,10,27,04,27,4.80
2019,10,27,04,28,4.80
2019,10,27,04,29,4.80
2019,10,27,04,30,4.80
2019,10,27,04,31,4.80
2019,10,27,04,32,4.80
2019,10,27,04,33,4.70
2019,10,27,04,34,4.70
2019,10,27,04,35,4.70
2019,10,27,04,36,4.70
2019,10,27,04,37,4.60
2019,10,27,04,38,4.60
2019,10,27,04,39,4.50
2019,10,27,04,40,4.40
2019,10,27,04,41,4.40
2019,10,27,04,42,4.40
2019,10,27,04,43,4.40
2019,10,27,04,44,4.40
2019,10,27,04,45,4.30
2019,10,27,04,46,4.30
2019,10,27,04,47,4.30
2019,10,27,04,48,4.40
2019,10,27,04,49,4.40
2019,10,27,04,50,4.40
2019,10,27,04,51,4.40
2019,10,27,04,52,4.40
2019,10,27,04,53,4.40
2019,10,27,04,54,4.30
2019,10,27,04,55,4.30
2019,10,27,04,56,4.30
2019,10,27,04,57,4.30
2019,10,27,04,58,4.30
2019,10,27,04,59,4.20
2019,10,27,05,00,4.20
2019,10,27,05,01,4.10
2019,10,27,05,02,4.10
2019,10,27,05,03,4.00
2019,10,27,05,04,4.00
2019,10,27,05,05,3.90
2019,10,27,05,06,3.90
2019,10,27,05,07,3.80
2019,10,27,05,08,3.80
2019,10,27,05,09,3.80
2019,10,27,05,10,3.80
2019,10,27,05,11,3.80
2019,10,27,05,12,3.80
2019,10,27,05,13,3.70
2019,10,27,05,14,3.70
2019,10,27,05,15,3.70
2019,10,27,05,16,3.70
2019,10,27,05,17,3.70
2019,10,27,05,18,3.70
2019,10,27,05,19,3.70
2019,10,27,05,20,3.80
2019,10,27,05,21,3.80
2019,10,27,05,22,3.80
2019,10,27,05,23,3.80
2019,10,27,05,24,3.90
2019,10,27,05,25,3.90
2019,10,27,05,26,3.90
2019,10,27,05,27,3.90
2019,10,27,05,28,4.00
2019,10,27,05,29,4.00
2019,10,27,05,30,3.90
2019,10,27,05,31,3.90
2019,10,27,05,32,3.90
2019,10,27,05,33,3.80
2019,10,27,05,34,3.80
2019,10,27,05,35,3.80
2019,10,27,05,36,3.80
2019,10,27,05,37,3.70
2019,10,27,05,38,3.70
2019,10,27,05,39,3.70
2019,10,27,05,40,3.70
2019,10,27,05,41,3.70
2019,10,27,05,42,3.70
2019,10,27,05,43,3.80
2019,10,27,05,44,3.80
2019,10,27,05,45,3.80
2019,10,27,05,46,3.90
2019,10,27,05,47,3.90
2019,10,27,05,48,3.90
2019,10,27,05,49,3.90
2019,10,27,05,50,3.90
2019,10,27,05,51,3.90
2019,10,27,05,52,3.90
2019,10,27,05,53,3.90
2019,10,27,05,54,4.00
2019,10,27,05,55,4.00
2019,10,27,05,56,4.00
2019,10,27,05,57,4.00
2019,10,27,05,58,4.00
2019,10,27,05,59,3.90
2019,10,27,06,00,3.90
2019,10,27,06,01,3.90
2019,10,27,06,02,3.90
2019,10,27,06,03,3.90
2019,10,27,06,04,3.90
2019,10,27,06,05,3.90
2019,10,27,06,06,3.90
2019,10,27,06,07,3.90
2019,10,27,06,08,4.00
2019,10,27,06,09,4.00
2019,10,27,06,10,4.00
2019,10,27,06,11,4.00
2019,10,27,06,12,4.00
2019,10,27,06,13,4.00
2019,10,27,06,14,4.00
2019,10,27,06,15,3.90
2019,10,27,06,16,3.90
2019,10,27,06,17,3.90
2019,10,27,06,18,3.90
2019,10,27,06,19,3.90
2019,10,27,06,20,4.00
2019,10,27,06,21,3.90
2019,10,27,06,22,3.90
2019,10,27,06,23,3.90
2019,10,27,06,24,3.90
2019,10,27,06,25,3.90
2019,10,27,06,26,3.90
2019,10,27,06,27,3.90
2019,10,27,06,28,3.90
2019,10,27,06,29,3.90
2019,10,27,06,30,3.90
2019,10,27,06,31,3.90
2019,10,27,06,32,3.90
2019,10,27,06,33,3.90
2019,10,27,06,34,3.90
2019,10,27,06,35,3.90
2019,10,27,06,36,3.90
2019,10,27,06,37,3.80
2019,10,27,06,38,3.80
2019,10,27,06,39,3.80
2019,10,27,06,40,3.80
2019,10,27,06,41,3.80
2019,10,27,06,42,3.80
2019,10,27,06,43,3.80
2019,10,27,06,44,3.80
2019,10,27,06,45,3.80
2019,10,27,06,46,3.80
2019,10,27,06,47,3.70
2019,10,27,06,48,3.70
2019,10,27,06,49,3.70
2019,10,27,06,50,3.60
2019,10,27,06,51,3.60
2019,10,27,06,52,3.60
2019,10,27,06,53,3.50
2019,10,27,06,54,3.40
2019,10,27,06,55,3.40
2019,10,27,06,56,3.30
2019,10,27,06,57,3.30
2019,10,27,06,58,3.30
2019,10,27,06,59,3.30
2019,10,27,07,00,3.20
2019,10,27,07,01,3.10
2019,10,27,07,02,3.10
2019,10,27,07,03,3.10
2019,10,27,07,04,3.00
2019,10,27,07,05,3.00
2019,10,27,07,06,3.10
2019,10,27,07,07,3.10
2019,10,27,07,08,3.20
2019,10,27,07,09,3.20
2019,10,27,07,10,3.20
2019,10,27,07,11,3.20
2019,10,27,07,12,3.20
2019,10,27,07,13,3.30
2019,10,27,07,14,3.30
2019,10,27,07,15,3.30
2019,10,27,07,16,3.30
2019,10,27,07,17,3.40
2019,10,27,07,18,3.40
2019,10,27,07,19,3.40
2019,10,27,07,20,3.40
2019,10,27,07,21,3.30
2019,10,27,07,22,3.30
2019,10,27,07,23,3.30
2019,10,27,07,24,3.20
2019,10,27,07,25,3.20
2019,10,27,07,26,3.20
2019,10,27,07,27,3.10
2019,10,27,07,28,3.10
2019,10,27,07,29,3.00
2019,10,27,07,30,3.00
2019,10,27,07,31,2.90
2019,10,27,07,32,2.90
2019,10,27,07,33,2.90
2019,10,27,07,34,2.80
2019,10,27,07,35,2.80
2019,10,27,07,36,2.80
2019,10,27,07,37,2.80
2019,10,27,07,38,2.80
2019,10,27,07,39,2.80
2019,10,27,07,40,2.80
2019,10,27,07,41,2.80
2019,10,27,07,42,2.70
2019,10,27,07,43,2.70
2019,10,27,07,44,2.70
2019,10,27,07,45,2.70
2019,10,27,07,46,2.70
2019,10,27,07,47,2.70
2019,10,27,07,48,2.70
2019,10,27,07,49,2.70
2019,10,27,07,50,2.60
2019,10,27,07,51,2.60
2019,10,27,07,52,2.60
2019,10,27,07,53,2.60
2019,10,27,07,54,2.60
2019,10,27,07,55,2.60
2019,10,27,07,56,2.60
2019,10,27,07,57,2.60
2019,10,27,07,58,2.60
2019,10,27,07,59,2.60
2019,10,27,08,00,2.60
2019,10,27,08,01,2.60
2019,10,27,08,02,2.70
2019,10,27,08,03,2.70
2019,10,27,08,04,2.70
2019,10,27,08,05,2.80
2019,10,27,08,06,2.80
2019,10,27,08,07,2.80
2019,10,27,08,08,2.90
2019,10,27,08,09,2.90
2019,10,27,08,10,2.90
2019,10,27,08,11,2.90
2019,10,27,08,12,2.90
2019,10,27,08,13,2.90
2019,10,27,08,14,2.80
2019,10,27,08,15,2.80
2019,10,27,08,16,2.80
2019,10,27,08,17,2.80
2019,10,27,08,18,2.80
2019,10,27,08,19,2.80
2019,10,27,08,20,2.90
2019,10,27,08,21,2.90
2019,10,27,08,22,2.90
2019,10,27,08,23,2.90
2019,10,27,08,24,3.00
2019,10,27,08,25,3.00
2019,10,27,08,26,3.00
2019,10,27,08,27,3.10
2019,10,27,08,28,3.10
2019,10,27,08,29,3.10
2019,10,27,08,30,3.20
2019,10,27,08,31,3.20
2019,10,27,08,32,3.20
2019,10,27,08,33,3.20
2019,10,27,08,34,3.20
2019,10,27,08,35,3.20
2019,10,27,08,36,3.30
2019,10,27,08,37,3.30
2019,10,27,08,38,3.30
2019,10,27,08,39,3.40
2019,10,27,08,40,3.40
2019,10,27,08,41,3.50
2019,10,27,08,42,3.50
2019,10,27,08,43,3.60
2019,10,27,08,44,3.60
2019,10,27,08,45,3.70
2019,10,27,08,46,3.70
2019,10,27,08,47,3.80
2019,10,27,08,48,3.80
2019,10,27,08,49,3.90
2019,10,27,08,50,3.90
2019,10,27,08,51,3.90
2019,10,27,08,52,4.00
2019,10,27,08,53,4.10
2019,10,27,08,54,4.10
2019,10,27,08,55,4.20
2019,10,27,08,56,4.20
2019,10,27,08,57,4.30
2019,10,27,08,58,4.30
2019,10,27,08,59,4.30
2019,10,27,09,00,4.30
2019,10,27,09,01,4.30
2019,10,27,09,02,4.40
2019,10,27,09,03,4.40
2019,10,27,09,04,4.40
2019,10,27,09,05,4.50
2019,10,27,09,06,4.50
2019,10,27,09,07,4.50
2019,10,27,09,08,4.60
2019,10,27,09,09,4.60
2019,10,27,09,10,4.70
2019,10,27,09,11,4.70
2019,10,27,09,12,4.70
2019,10,27,09,13,4.70
2019,10,27,09,14,4.80
2019,10,27,09,15,4.80
2019,10,27,09,16,4.80
2019,10,27,09,17,4.90
2019,10,27,09,18,4.90
2019,10,27,09,19,4.90
2019,10,27,09,20,4.90
2019,10,27,09,21,5.00
2019,10,27,09,22,5.00
2019,10,27,09,23,5.10
2019,10,27,09,24,5.10
2019,10,27,09,25,5.20
2019,10,27,09,26,5.30
2019,10,27,09,27,5.30
2019,10,27,09,28,5.40
2019,10,27,09,29,5.40
2019,10,27,09,30,5.40
2019,10,27,09,31,5.40
2019,10,27,09,32,5.30
2019,10,27,09,33,5.30
2019,10,27,09,34,5.30
2019,10,27,09,35,5.30
2019,10,27,09,36,5.30
2019,10,27,09,37,5.30
2019,10,27,09,38,5.40
2019,10,27,09,39,5.40
2019,10,27,09,40,5.40
2019,10,27,09,41,5.40
2019,10,27,09,42,5.40
2019,10,27,09,43,5.40
2019,10,27,09,44,5.40
2019,10,27,09,45,5.40
2019,10,27,09,46,5.50
2019,10,27,09,47,5.50
2019,10,27,09,48,5.50
2019,10,27,09,49,5.50
2019,10,27,09,50,5.60
2019,10,27,09,51,5.60
2019,10,27,09,52,5.60
2019,10,27,09,53,5.60
2019,10,27,09,54,5.70
2019,10,27,09,55,5.70
2019,10,27,09,56,5.70
2019,10,27,09,57,5.80
2019,10,27,09,58,5.80
2019,10,27,09,59,5.80
2019,10,27,10,00,5.80
2019,10,27,10,01,5.80
2019,10,27,10,02,5.80
2019,10,27,10,03,5.80
2019,10,27,10,04,5.80
2019,10,27,10,05,5.80
2019,10,27,10,06,5.80
2019,10,27,10,07,5.90
2019,10,27,10,08,5.90
2019,10,27,10,09,5.90
2019,10,27,10,10,6.00
2019,10,27,10,11,6.00
2019,10,27,10,12,6.10
2019,10,27,10,13,6.10
2019,10,27,10,14,6.10
2019,10,27,10,15,6.10
2019,10,27,10,16,6.20
2019,10,27,10,17,6.20
2019,10,27,10,18,6.30
2019,10,27,10,19,6.30
2019,10,27,10,20,6.30
2019,10,27,10,21,6.30
2019,10,27,10,22,6.40
2019,10,27,10,23,6.40
2019,10,27,10,24,6.40
2019,10,27,10,25,6.40
2019,10,27,10,26,6.40
2019,10,27,10,27,6.40
2019,10,27,10,28,6.40
2019,10,27,10,29,6.50
2019,10,27,10,30,6.50
2019,10,27,10,31,6.60
2019,10,27,10,32,6.70
2019,10,27,10,33,6.70
2019,10,27,10,34,6.80
2019,10,27,10,35,6.80
2019,10,27,10,36,6.80
2019,10,27,10,37,6.80
2019,10,27,10,38,6.80
2019,10,27,10,39,6.80
2019,10,27,10,40,6.80
2019,10,27,10,41,6.90
2019,10,27,10,42,6.90
2019,10,27,10,43,6.90
2019,10,27,10,44,7.00
2019,10,27,10,45,7.10
2019,10,27,10,46,7.10
2019,10,27,10,47,7.20
2019,10,27,10,48,7.20
2019,10,27,10,49,7.30
2019,10,27,10,50,7.30
2019,10,27,10,51,7.30
2019,10,27,10,52,7.30
2019,10,27,10,53,7.30
2019,10,27,10,54,7.30
2019,10,27,10,55,7.40
2019,10,27,10,56,7.40
2019,10,27,10,57,7.40
2019,10,27,10,58,7.50
2019,10,27,10,59,7.50
2019,10,27,11,00,7.50
2019,10,27,11,01,7.60
2019,10,27,11,02,7.60
2019,10,27,11,03,7.60
2019,10,27,11,04,7.70
2019,10,27,11,05,7.70
2019,10,27,11,06,7.80
2019,10,27,11,07,7.80
2019,10,27,11,08,7.80
2019,10,27,11,09,7.80
2019,10,27,11,10,7.80
2019,10,27,11,11,7.90
2019,10,27,11,12,7.90
2019,10,27,11,13,7.90
2019,10,27,11,14,8.00
2019,10,27,11,15,7.90
2019,10,27,11,16,7.90
2019,10,27,11,17,7.90
2019,10,27,11,18,7.90
2019,10,27,11,19,7.80
2019,10,27,11,20,7.80
2019,10,27,11,21,7.80
2019,10,27,11,22,7.80
2019,10,27,11,23,7.80
2019,10,27,11,24,7.80
2019,10,27,11,25,7.80
2019,10,27,11,26,7.80
2019,10,27,11,27,7.80
2019,10,27,11,28,7.80
2019,10,27,11,29,7.80
2019,10,27,11,30,7.90
2019,10,27,11,31,7.90
2019,10,27,11,32,7.90
2019,10,27,11,33,8.00
2019,10,27,11,34,8.00
2019,10,27,11,35,7.90
2019,10,27,11,36,8.00
2019,10,27,11,37,7.90
2019,10,27,11,38,7.90
2019,10,27,11,39,8.00
2019,10,27,11,40,8.00
2019,10,27,11,41,8.00
2019,10,27,11,42,8.00
2019,10,27,11,43,8.10
2019,10,27,11,44,8.10
2019,10,27,11,45,8.20
2019,10,27,11,46,8.30
2019,10,27,11,47,8.30
2019,10,27,11,48,8.40
2019,10,27,11,49,8.40
2019,10,27,11,50,8.30
2019,10,27,11,51,8.30
2019,10,27,11,52,8.40
2019,10,27,11,53,8.40
2019,10,27,11,54,8.40
2019,10,27,11,55,8.40
2019,10,27,11,56,8.40
2019,10,27,11,57,8.50
2019,10,27,11,58,8.50
2019,10,27,11,59,8.60
2019,10,27,12,00,8.60
2019,10,27,12,01,8.70
2019,10,27,12,02,8.80
2019,10,27,12,03,8.80
2019,10,27,12,04,8.80
2019,10,27,12,05,8.90
2019,10,27,12,06,8.90
2019,10,27,12,07,9.00
2019,10,27,12,08,9.10
2019,10,27,12,09,9.20
2019,10,27,12,10,9.30
2019,10,27,12,11,9.40
2019,10,27,12,12,9.40
2019,10,27,12,13,9.40
2019,10,27,12,14,9.50
2019,10,27,12,15,9.60
2019,10,27,12,16,9.60
2019,10,27,12,17,9.60
2019,10,27,12,18,9.70
2019,10,27,12,19,9.70
2019,10,27,12,20,9.70
2019,10,27,12,21,9.70
2019,10,27,12,22,9.70
2019,10,27,12,23,9.70
2019,10,27,12,24,9.70
2019,10,27,12,25,9.70
2019,10,27,12,26,9.80
2019,10,27,12,27,9.80
2019,10,27,12,28,9.80
2019,10,27,12,29,9.80
2019,10,27,12,30,9.90
2019,10,27,12,31,9.90
2019,10,27,12,32,9.90
2019,10,27,12,33,9.90
2019,10,27,12,34,9.90
2019,10,27,12,35,9.90
2019,10,27,12,36,9.90
2019,10,27,12,37,9.90
2019,10,27,12,38,9.90
2019,10,27,12,39,9.90
2019,10,27,12,40,9.90
2019,10,27,12,41,9.90
2019,10,27,12,42,9.90
2019,10,27,12,43,9.90
2019,10,27,12,44,9.90
2019,10,27,12,45,9.90
2019,10,27,12,46,9.80
2019,10,27,12,47,9.80
2019,10,27,12,48,9.90
2019,10,27,12,49,9.90
2019,10,27,12,50,10.00
2019,10,27,12,51,10.00
2019,10,27,12,52,10.00
2019,10,27,12,53,10.00
2019,10,27,12,54,10.00
2019,10,27,12,55,10.00
2019,10,27,12,56,10.00
2019,10,27,12,57,10.00
2019,10,27,12,58,10.10
2019,10,27,12,59,10.10
2019,10,27,13,00,10.10
2019,10,27,13,01,10.10
2019,10,27,13,02,10.10
2019,10,27,13,03,10.20
2019,10,27,13,04,10.30
2019,10,27,13,05,10.30
2019,10,27,13,06,10.40
2019,10,27,13,07,10.40
2019,10,27,13,08,10.50
2019,10,27,13,09,10.50
2019,10,27,13,10,10.60
2019,10,27,13,11,10.60
2019,10,27,13,12,10.50
2019,10,27,13,13,10.50
2019,10,27,13,14,10.50
2019,10,27,13,15,10.40
2019,10,27,13,16,10.50
2019,10,27,13,17,10.50
2019,10,27,13,18,10.50
2019,10,27,13,19,10.50
2019,10,27,13,20,10.50
2019,10,27,13,21,10.40
2019,10,27,13,22,10.40
2019,10,27,13,23,10.40
2019,10,27,13,24,10.40
2019,10,27,13,25,10.40
2019,10,27,13,26,10.40
2019,10,27,13,27,10.30
2019,10,27,13,28,10.30
2019,10,27,13,29,10.30
2019,10,27,13,30,10.40
2019,10,27,13,31,10.40
2019,10,27,13,32,10.40
2019,10,27,13,33,10.40
2019,10,27,13,34,10.40
2019,10,27,13,35,10.50
2019,10,27,13,36,10.50
2019,10,27,13,37,10.50
2019,10,27,13,38,10.60
2019,10,27,13,39,10.60
2019,10,27,13,40,10.60
2019,10,27,13,41,10.70
2019,10,27,13,42,10.70
2019,10,27,13,43,10.70
2019,10,27,13,44,10.70
2019,10,27,13,45,10.80
2019,10,27,13,46,10.80
2019,10,27,13,47,10.90
2019,10,27,13,48,10.90
2019,10,27,13,49,11.00
2019,10,27,13,50,11.00
2019,10,27,13,51,11.10
2019,10,27,13,52,11.10
2019,10,27,13,53,11.10
2019,10,27,13,54,11.10
2019,10,27,13,55,11.10
2019,10,27,13,56,11.10
2019,10,27,13,57,11.20
2019,10,27,13,58,11.20
2019,10,27,13,59,11.30
2019,10,27,14,00,11.30
2019,10,27,14,01,11.40
2019,10,27,14,02,11.40
2019,10,27,14,03,11.40
2019,10,27,14,04,11.40
2019,10,27,14,05,11.40
2019,10,27,14,06,11.40
2019,10,27,14,07,11.30
2019,10,27,14,08,11.40
2019,10,27,14,09,11.40
2019,10,27,14,10,11.30
2019,10,27,14,11,11.30
2019,10,27,14,12,11.30
2019,10,27,14,13,11.30
2019,10,27,14,14,11.40
2019,10,27,14,15,11.40
2019,10,27,14,16,11.50
2019,10,27,14,17,11.60
2019,10,27,14,18,11.60
2019,10,27,14,19,11.70
2019,10,27,14,20,11.70
2019,10,27,14,21,11.80
2019,10,27,14,22,11.80
2019,10,27,14,23,11.80
2019,10,27,14,24,11.80
2019,10,27,14,25,11.90
2019,10,27,14,26,11.90
2019,10,27,14,27,11.90
2019,10,27,14,28,11.90
2019,10,27,14,29,11.90
2019,10,27,14,30,11.90
2019,10,27,14,31,11.90
2019,10,27,14,32,11.90
2019,10,27,14,33,12.00
2019,10,27,14,34,12.00
2019,10,27,14,35,11.90
2019,10,27,14,36,11.90
2019,10,27,14,37,11.90
2019,10,27,14,38,11.90
2019,10,27,14,39,11.90
2019,10,27,14,40,11.80
2019,10,27,14,41,11.80
2019,10,27,14,42,11.80
2019,10,27,14,43,11.80
2019,10,27,14,44,11.80
2019,10,27,14,45,11.80
2019,10,27,14,46,11.80
2019,10,27,14,47,11.80
2019,10,27,14,48,11.90
2019,10,27,14,49,11.90
2019,10,27,14,50,11.90
2019,10,27,14,51,11.90
2019,10,27,14,52,11.90
2019,10,27,14,53,11.90
2019,10,27,14,54,11.90
2019,10,27,14,55,11.90
2019,10,27,14,56,11.90
2019,10,27,14,57,11.80
2019,10,27,14,58,11.80
2019,10,27,14,59,11.80
2019,10,27,15,00,11.80
2019,10,27,15,01,11.80
2019,10,27,15,02,11.80
2019,10,27,15,03,11.80
2019,10,27,15,04,11.80
2019,10,27,15,05,11.80
2019,10,27,15,06,11.80
2019,10,27,15,07,11.80
2019,10,27,15,08,11.70
2019,10,27,15,09,11.80
2019,10,27,15,10,11.80
2019,10,27,15,11,11.80
2019,10,27,15,12,11.80
2019,10,27,15,13,11.80
2019,10,27,15,14,11.80
2019,10,27,15,15,11.80
2019,10,27,15,16,11.80
2019,10,27,15,17,11.80
2019,10,27,15,18,11.80
2019,10,27,15,19,11.80
2019,10,27,15,20,11.80
2019,10,27,15,21,11.70
2019,10,27,15,22,11.70
2019,10,27,15,23,11.70
2019,10,27,15,24,11.70
2019,10,27,15,25,11.80
2019,10,27,15,26,11.80
2019,10,27,15,27,11.80
2019,10,27,15,28,11.80
2019,10,27,15,29,11.80
2019,10,27,15,30,11.80
2019,10,27,15,31,11.80
2019,10,27,15,32,11.80
2019,10,27,15,33,11.80
2019,10,27,15,34,11.80
2019,10,27,15,35,11.70
2019,10,27,15,36,11.70
2019,10,27,15,37,11.70
2019,10,27,15,38,11.60
2019,10,27,15,39,11.60
2019,10,27,15,40,11.60
2019,10,27,15,41,11.60
2019,10,27,15,42,11.60
2019,10,27,15,43,11.60
2019,10,27,15,44,11.60
2019,10,27,15,45,11.60
2019,10,27,15,46,11.60
2019,10,27,15,47,11.60
2019,10,27,15,48,11.60
2019,10,27,15,49,11.70
2019,10,27,15,50,11.70
2019,10,27,15,51,11.70
2019,10,27,15,52,11.70
2019,10,27,15,53,11.80
2019,10,27,15,54,11.80
2019,10,27,15,55,11.80
2019,10,27,15,56,11.90
2019,10,27,15,57,12.00
2019,10,27,15,58,12.00
2019,10,27,15,59,12.10
2019,10,27,16,00,12.10
2019,10,27,16,01,12.10
2019,10,27,16,02,12.20
2019,10,27,16,03,12.20
2019,10,27,16,04,12.20
2019,10,27,16,05,12.20
2019,10,27,16,06,12.20
2019,10,27,16,07,12.10
2019,10,27,16,08,12.10
2019,10,27,16,09,12.10
2019,10,27,16,10,12.20
2019,10,27,16,11,12.20
2019,10,27,16,12,12.30
2019,10,27,16,13,12.30
2019,10,27,16,14,12.30
2019,10,27,16,15,12.30
2019,10,27,16,16,12.30
2019,10,27,16,17,12.30
2019,10,27,16,18,12.20
2019,10,27,16,19,12.20
2019,10,27,16,20,12.20
2019,10,27,16,21,12.20
2019,10,27,16,22,12.20
2019,10,27,16,23,12.20
2019,10,27,16,24,12.10
2019,10,27,16,25,12.10
2019,10,27,16,26,12.10
2019,10,27,16,27,12.10
2019,10,27,16,28,12.10
2019,10,27,16,29,12.10
2019,10,27,16,30,12.10
2019,10,27,16,31,12.10
2019,10,27,16,32,12.00
2019,10,27,16,33,12.00
2019,10,27,16,34,11.90
2019,10,27,16,35,11.90
2019,10,27,16,36,11.90
2019,10,27,16,37,11.80
2019,10,27,16,38,11.80
2019,10,27,16,39,11.80
2019,10,27,16,40,11.70
2019,10,27,16,41,11.70
2019,10,27,16,42,11.60
2019,10,27,16,43,11.60
2019,10,27,16,44,11.50
2019,10,27,16,45,11.50
2019,10,27,16,46,11.50
2019,10,27,16,47,11.50
2019,10,27,16,48,11.50
2019,10,27,16,49,11.50
2019,10,27,16,50,11.60
2019,10,27,16,51,11.60
2019,10,27,16,52,11.60
2019,10,27,16,53,11.60
2019,10,27,16,54,11.50
2019,10,27,16,55,11.50
2019,10,27,16,56,11.50
2019,10,27,16,57,11.50
2019,10,27,16,58,11.40
2019,10,27,16,59,11.40
2019,10,27,17,00,11.40
2019,10,27,17,01,11.40
2019,10,27,17,02,11.40
2019,10,27,17,03,11.50
2019,10,27,17,04,11.50
2019,10,27,17,05,11.50
2019,10,27,17,06,11.60
2019,10,27,17,07,11.60
2019,10,27,17,08,11.70
2019,10,27,17,09,11.70
2019,10,27,17,10,11.80
2019,10,27,17,11,11.80
2019,10,27,17,12,11.80
2019,10,27,17,13,11.80
2019,10,27,17,14,11.90
2019,10,27,17,15,11.90
2019,10,27,17,16,11.90
2019,10,27,17,17,11.90
2019,10,27,17,18,11.90
2019,10,27,17,19,11.90
2019,10,27,17,20,11.90
2019,10,27,17,21,11.90
2019,10,27,17,22,11.90
2019,10,27,17,23,11.90
2019,10,27,17,24,11.90
2019,10,27,17,25,11.90
2019,10,27,17,26,11.90
2019,10,27,17,27,11.90
2019,10,27,17,28,11.90
2019,10,27,17,29,11.90
2019,10,27,17,30,11.90
2019,10,27,17,31,11.90
2019,10,27,17,32,11.90
2019,10,27,17,33,11.90
2019,10,27,17,34,11.90
2019,10,27,17,35,11.90
2019,10,27,17,36,11.90
2019,10,27,17,37,11.90
2019,10,27,17,38,11.90
2019,10,27,17,39,11.90
2019,10,27,17,40,11.80
2019,10,27,17,41,11.80
2019,10,27,17,42,11.80
2019,10,27,17,43,11.70
2019,10,27,17,44,11.70
2019,10,27,17,45,11.60
2019,10,27,17,46,11.50
2019,10,27,17,47,11.40
2019,10,27,17,48,11.30
2019,10,27,17,49,11.30
2019,10,27,17,50,11.20
2019,10,27,17,51,11.10
2019,10,27,17,52,11.00